EW9842 Weather Reports


time (UTC)temp
F
wind
direction
speed
knots
gust
knots
rain 1hr
in
rain 24hr
in
rain mn
in
humidity
%
barometer
mb
20260906160034 51 245 0.0 0.9 0.02 0.35 0.24 98 1019.8
20260906154532 51 163 0.0 0.9 0.02 0.35 0.24 98 1019.7
20260906153034 51 135 0.0 0.0 0.03 0.35 0.23 98 1019.7
20260906150105 50 135 0.0 0.0 0.04 0.33 0.22 98 1019.3
20260906144610 50 135 0.0 0.0 0.05 0.33 0.21 98 1019.2
20260906143030 50 135 0.0 0.9 0.05 0.32 0.20 98 1019.0
20260906141530 50 135 0.0 0.9 0.06 0.31 0.18 98 1018.9
20260906140109 50 135 0.0 1.7 0.05 0.28 0.17 98 1018.7
20260906134533 50 135 0.0 0.9 0.04 0.28 0.16 98 1018.6
20260906133109 50 184 0.0 1.7 0.04 0.27 0.14 98 1018.6
20260906131533 50 225 0.0 0.0 0.03 0.25 0.13 98 1018.5
20260906130043 50 202 0.0 1.7 0.03 0.24 0.13 98 1018.6
20260906123036 50 138 0.0 1.7 0.02 0.23 0.11 98 1018.7
20260906121533 50 170 1.7 3.5 0.01 0.22 0.10 98 1018.8
20260906120033 50 157 0.0 2.6 0.01 0.21 0.10 98 1018.8
20260906114530 50 157 0.0 0.9 0.01 0.21 0.10 98 1018.8
20260906113033 50 157 0.0 0.9 0.01 0.21 0.10 98 1018.9
20260906111532 50 157 0.0 0.0 0.01 0.21 0.09 98 1019.0
20260906110035 50 177 0.0 3.5 0.00 0.20 0.09 98 1019.0
20260906104531 51 122 0.9 3.5 0.01 0.20 0.09 98 1019.4
20260906101534 51 150 0.9 2.6 0.04 0.20 0.09 98 1019.6
20260906100034 51 159 0.9 3.5 0.06 0.20 0.08 97 1019.6
20260906091608 51 138 1.7 3.5 0.04 0.16 0.03 97 1019.6
20260906090033 51 135 0.9 3.5 0.02 0.14 0.02 97 1019.6
20260906083035 50 141 2.6 5.2 0.01 0.12 0.01 97 1019.7
20260906081611 50 138 1.7 4.3 0.01 0.12 0.01 97 1019.5
20260906080038 50 140 0.9 2.6 0.01 0.12 0.00 97 1019.4
20260906074534 50 130 1.7 3.5 0.00 0.11 0.00 97 1019.3
20260906073044 50 148 0.0 3.5 0.00 0.11 0.00 97 1019.4
20260906071532 50 140 0.9 3.5 0.00 0.11 0.00 97 1019.5
20260906070031 49 140 0.9 3.5 0.00 0.11 0.00 97 1019.6
20260906064651 49 146 1.7 4.3 0.00 0.11 0.11 97 1019.8
20260906063031 49 151 0.9 3.5 0.00 0.11 0.11 97 1019.8
20260906054536 49 134 0.9 2.6 0.00 0.13 0.11 96 1019.9
20260906051535 50 172 1.7 4.3 0.00 0.13 0.11 96 1020.2
20260906050108 50 163 0.0 3.5 0.00 0.13 0.11 96 1020.2
20260906041536 51 140 0.9 4.3 0.00 0.13 0.11 96 1020.3
20260906040034 51 138 0.9 3.5 0.00 0.13 0.11 95 1020.3
20260906033033 51 157 2.6 6.1 0.00 0.13 0.11 94 1020.0
20260906031609 52 159 0.9 3.5 0.00 0.13 0.11 93 1019.9
20260906030035 53 155 0.0 3.5 0.00 0.13 0.11 93 1019.8
20260906024537 54 151 0.9 3.5 0.00 0.13 0.11 92 1019.8
20260906021609 55 123 0.9 2.6 0.00 0.13 0.11 87 1019.9
20260906014533 57 157 0.0 1.7 0.00 0.13 0.11 84 1019.8
20260906013031 58 157 0.0 1.7 0.00 0.13 0.11 81 1019.8
20260906011537 59 208 0.0 2.6 0.00 0.13 0.11 78 1020.0
20260906010141 62 211 0.0 1.7 0.00 0.13 0.11 75 1020.1
20260906004532 63 244 0.9 3.5 0.00 0.13 0.11 76 1020.3
20260906003032 62 267 0.9 4.3 0.00 0.13 0.11 79 1020.3
20260906001531 61 267 1.7 4.3 0.11 0.13 0.11 84 1020.3
20260906000032 59 140 0.9 6.1 0.11 0.13 0.11 89 1020.3
20260905234533 58 68 0.0 5.2 0.11 0.13 0.11 88 1020.2
20260905231529 60 216 0.0 2.6 0.00 0.02 0.00 76 1020.4
20260905230035 61 282 0.0 2.6 0.00 0.02 0.00 74 1020.4
20260905224535 62 277 1.7 7.0 0.00 0.02 0.00 79 1020.3
20260905223035 59 231 1.7 7.0 0.00 0.02 0.00 80 1020.3
20260905221534 61 193 2.6 5.2 0.00 0.02 0.00 74 1020.3
20260905220032 63 249 0.9 4.3 0.00 0.02 0.00 70 1020.1
20260905214536 63 287 1.7 5.2 0.00 0.02 0.00 69 1020.2
20260905213036 62 294 0.9 4.3 0.00 0.02 0.00 73 1020.2
20260905211533 61 254 0.9 2.6 0.00 0.02 0.00 73 1020.4
20260905210034 61 284 0.9 3.5 0.00 0.02 0.00 73 1020.5
20260905204534 61 296 0.0 2.6 0.00 0.02 0.00 74 1020.6
20260905203035 60 279 1.7 4.3 0.00 0.02 0.00 76 1020.6
20260905201535 59 357 0.0 2.6 0.00 0.02 0.00 78 1020.7
20260905200034 58 258 0.9 4.3 0.00 0.02 0.00 79 1020.8
20260905194645 58 255 0.9 4.3 0.00 0.02 0.00 79 1020.8
20260905193141 58 252 1.7 5.2 0.00 0.02 0.00 81 1020.8
20260905191533 58 253 1.7 4.3 0.00 0.02 0.00 82 1020.9
20260905190033 58 275 1.7 5.2 0.00 0.02 0.00 82 1021.0
20260905184534 57 265 0.0 3.5 0.00 0.02 0.00 82 1021.1
20260905183036 57 296 1.7 3.5 0.00 0.02 0.00 81 1021.1
20260905181610 58 304 2.6 5.2 0.00 0.02 0.00 81 1021.2
20260905180037 57 289 1.7 5.2 0.00 0.02 0.00 84 1021.3
20260905174534 57 298 1.7 4.3 0.00 0.02 0.00 88 1021.2
20260905170035 53 225 0.0 0.9 0.00 0.02 0.00 94 1021.1